This demonstration page uses our WeatherBlox Daily Observations layout. Learn more.

Left ArrowRight Arrow

Hourly Observations for September 29, 2022

Temp ( °F °C ) Dew Point ( °F °C ) Humidity (%) Winds ( mph kmh ) Pressure ( in mb ) Visibility ( mi km ) Precip ( " mm )
12:52 am 00:52 Clear 54 12.2 37 2.8 53 53 ESE 13 20 30.35 1028 10 16 0.00 0.00
1:52 am 01:52 Clear 53 11.7 37 2.8 54 54 ESE 12 19 30.35 1028 10 16 0.00 0.00
2:52 am 02:52 Clear 50 10 37 2.8 61 61 ESE 8 13 30.36 1028 10 16 0.00 0.00
3:52 am 03:52 Clear 48 8.9 37 2.8 66 66 ESE 5 7 30.35 1028 10 16 0.00 0.00
4:52 am 04:52 Clear 45 7.2 36 2.2 70 70 SE 5 7 30.36 1028 10 16 0.00 0.00
5:52 am 05:52 Clear 45 7.2 37 2.8 74 74 SE 6 9 30.37 1028 10 16 0.00 0.00
6:52 am 06:52 Clear 44 6.7 37 2.8 76 76 SSE 7 11 30.38 1029 10 16 0.00 0.00
7:52 am 07:52 Sunny 48 8.9 40 4.4 73 73 SE 8 13 30.39 1029 10 16 0.00 0.00
8:52 am 08:52 Sunny 53 11.7 41 5 63 63 SSE 14 22 30.40 1029 10 16 0.00 0.00
9:52 am 09:52 Sunny 57 13.9 41 5 55 55 SSE 18 30 30.39 1029 10 16 0.00 0.00
10:52 am 10:52 Sunny 60 15.6 42 5.6 51 51 SE 14 22 30.38 1029 10 16 0.00 0.00
11:52 am 11:52 Sunny 63 17.2 41 5 44 44 SSE 13 20 30.37 1028 10 16 0.00 0.00
12:52 pm 12:52 Sunny 66 18.9 39 3.9 37 37 SE 12 19 30.34 1027 10 16 0.00 0.00
1:52 pm 13:52 Sunny 69 20.6 40 4.4 34 34 ESE 8 13 30.31 1026 10 16 0.00 0.00
2:52 pm 14:52 Sunny 69 20.6 39 3.9 33 33 SSE 8 13 30.27 1025 10 16 0.00 0.00
3:52 pm 15:52 Sunny 70 21.1 38 3.3 31 31 VRB 5 7 30.24 1024 10 16 0.00 0.00
4:52 pm 16:52 Sunny 71 21.7 36 2.2 28 28 ESE 8 13 30.23 1024 10 16 0.00 0.00
5:52 pm 17:52 Sunny 69 20.6 37 2.8 31 31 ESE 9 15 30.22 1023 10 16 0.00 0.00
6:52 pm 18:52 Sunny 64 17.8 38 3.3 38 38 ESE 9 15 30.21 1023 10 16 0.00 0.00
7:52 pm 19:52 Clear 58 14.4 39 3.9 49 49 ESE 7 11 30.21 1023 10 16 0.00 0.00
8:52 pm 20:52 Clear 57 13.9 40 4.4 53 53 SE 6 9 30.22 1023 10 16 0.00 0.00
9:52 pm 21:52 Clear 51 10.6 40 4.4 65 65 ESE 6 9 30.22 1024 10 16 0.00 0.00
10:52 pm 22:52 Clear 51 10.6 41 5 68 68 ESE 5 7 30.22 1023 10 16 0.00 0.00
11:52 pm 23:52 Clear 50 10 41 5 71 71 SE 6 9 30.22 1023 10 16 0.00 0.00

Powered by AerisWeather